Bradford, PA

3:00 PM EDT on June 28, 2017 (GMT -0400)
Bradford Regional

Weather History for KBFD - March, 2014

Change the Weather History Date:

Saturday, March 8, 2014

  Actual Average Record
Temperature  
Mean Temperature 29 °F 29 °F  
Max Temperature 34 °F 38 °F 74 °F (2000)
Min Temperature 24 °F 19 °F -15 °F (1999)
Degree Days  
Heating Degree Days 36 31  
Month to date heating degree days 385 255  
Since 1 July heating degree days 6051 5825  
Cooling Degree Days 0 0  
Month to date cooling degree days 0 0  
Year to date cooling degree days 0 0  
Moisture  
Dew Point 24 °F    
Average Humidity 74    
Maximum Humidity 85    
Minimum Humidity 63    
Precipitation  
Precipitation 0.01 in 0.10 in 1.12 in (2009)
Month to date precipitation 0.05 0.79  
Year to date precipitation 3.58 6.43  
Sea Level Pressure  
Sea Level Pressure 29.93 in    
Wind  
Wind Speed 7 mph (WNW)    
Max Wind Speed 17 mph    
Max Gust Speed 21 mph    
Visibility 5 miles    
Events Snow    
T = Trace of Precipitation, MM = Missing Value Source: NWS Daily Summary

Daily Weather History Graph

Daily Weather History Graph

Search for Another Location

Airport or City:

Trip Planner

Search our weather history database for the weather conditions in past years. The results will help you decide how hot, cold, wet, or windy it might be!

Date:

Astronomy

Mar. 08, 2014 Rise Set
Actual Time 6:38 AM EST 6:13 PM EST
Civil Twilight 6:10 AM EST 6:40 PM EST
Nautical Twilight 5:38 AM EST 7:13 PM EST
Astronomical Twilight 5:05 AM EST 7:45 PM EST
Moon 11:12 AM EST (3/8) 1:14 AM EST (3/8)
Length of Visible Light 12h 30m
Length of Day
11h 35m
First Quarter, 51% of the Moon is Illuminated
Mar 8
First Quarter
Mar 16
Full
Mar 23
Last Quarter
Mar 30
New
Apr 7
First Quarter

Hourly Weather History & Observations

Time (EST) Temp. Windchill Dew Point Humidity Pressure Visibility Wind Dir Wind Speed Gust Speed Precip Events Conditions
12:53 AM 32.0 °F - 21.9 °F 66% 29.91 in 10.0 mi Calm Calm - N/A   Clear
1:53 AM 30.0 °F - 21.9 °F 72% 29.91 in 10.0 mi Calm Calm - N/A   Partly Cloudy
3:53 AM 26.1 °F - 21.0 °F 81% 29.88 in 10.0 mi Calm Calm - N/A   Clear
4:53 AM 33.1 °F 28.7 °F 25.0 °F 72% 29.87 in 10.0 mi WSW 4.6 mph - N/A   Clear
5:53 AM 32.0 °F 28.7 °F 25.0 °F 75% 29.90 in 10.0 mi WSW 3.5 mph - N/A   Clear
6:53 AM 28.9 °F - 24.1 °F 82% 29.90 in 7.0 mi Calm Calm - N/A   Overcast
7:53 AM 34.0 °F 28.0 °F 25.0 °F 70% 29.93 in 7.0 mi West 6.9 mph - N/A   Overcast
8:53 AM 34.0 °F 28.0 °F 26.1 °F 73% 29.93 in 4.0 mi WNW 6.9 mph - 0.00 in Snow Light Snow
9:22 AM 34.0 °F 28.8 °F 26.1 °F 73% 29.87 in 6.0 mi West 5.8 mph - 0.00 in   Haze
9:49 AM 33.8 °F 26.4 °F 26.6 °F 75% 29.87 in 6.0 mi West 9.2 mph - 0.00 in   Haze
9:53 AM 34.0 °F 27.2 °F 26.1 °F 73% 29.93 in 6.0 mi WNW 8.1 mph - 0.00 in   Haze
10:53 AM 34.0 °F 25.5 °F 27.0 °F 75% 29.94 in 5.0 mi West 11.5 mph - N/A   Haze
11:21 AM 33.1 °F 25.5 °F 28.0 °F 82% 29.88 in 3.0 mi West 9.2 mph 21.9 mph 0.00 in   Overcast
11:53 AM 34.0 °F 27.2 °F 28.0 °F 79% 29.94 in 3.0 mi West 8.1 mph - 0.00 in   Haze
12:14 PM 34.0 °F 26.6 °F 28.0 °F 79% 29.88 in 4.0 mi West 9.2 mph - N/A   Haze
12:53 PM 34.0 °F 28.0 °F 28.0 °F 79% 29.94 in 3.0 mi West 6.9 mph - 0.00 in Snow Light Snow
1:40 PM 33.1 °F 25.5 °F 28.0 °F 82% 29.88 in 2.5 mi West 9.2 mph - 0.00 in Snow Light Snow
1:53 PM 33.1 °F 24.9 °F 27.0 °F 78% 29.94 in 3.0 mi WNW 10.4 mph - 0.00 in Snow Light Snow
2:22 PM 32.0 °F 23.0 °F 27.0 °F 82% 29.88 in 1.8 mi WNW 11.5 mph - 0.00 in Snow Light Snow
2:46 PM 32.0 °F 23.6 °F 27.0 °F 82% 29.88 in 2.5 mi WNW 10.4 mph - 0.00 in Snow Light Snow
2:53 PM 32.0 °F 22.5 °F 27.0 °F 82% 29.94 in 4.0 mi WNW 12.7 mph - 0.00 in   Haze
3:53 PM 30.9 °F 21.7 °F 26.1 °F 82% 29.95 in 4.0 mi NW 11.5 mph - 0.00 in   Haze
4:36 PM 30.9 °F 23.5 °F 26.1 °F 82% 29.89 in 2.0 mi WNW 8.1 mph - 0.00 in Snow Light Snow
4:53 PM 30.9 °F 22.8 °F 26.1 °F 82% 29.95 in 2.0 mi WNW 9.2 mph - 0.00 in Snow Light Snow
5:14 PM 30.0 °F 22.4 °F 26.1 °F 85% 29.90 in 1.2 mi NW 8.1 mph - 0.00 in Snow Light Snow
5:29 PM 30.0 °F 22.4 °F 26.1 °F 85% 29.91 in 0.8 mi WNW 8.1 mph - 0.00 in Snow Light Snow
5:48 PM 30.2 °F 23.4 °F 26.6 °F 86% 29.91 in 0.8 mi West 6.9 mph - 0.00 in Snow Light Snow
5:53 PM 30.0 °F 21.7 °F 26.1 °F 85% 29.97 in 0.8 mi WNW 9.2 mph - 0.00 in Snow Light Snow
6:03 PM 28.9 °F 20.4 °F 26.1 °F 89% 29.92 in 0.8 mi WNW 9.2 mph - 0.00 in Snow Light Snow
6:24 PM 28.9 °F 21.1 °F 26.1 °F 89% 29.92 in 1.8 mi WNW 8.1 mph - 0.00 in Snow Light Snow
6:31 PM 28.9 °F 20.4 °F 25.0 °F 85% 29.93 in 2.5 mi NW 9.2 mph - 0.00 in Snow Light Snow
6:41 PM 28.9 °F 18.6 °F 24.1 °F 82% 29.93 in 3.0 mi WNW 12.7 mph - 0.00 in Snow Light Snow
6:53 PM 28.9 °F 19.2 °F 24.1 °F 82% 29.99 in 3.0 mi West 11.5 mph - 0.00 in Snow Light Snow
7:01 PM 28.9 °F 21.1 °F 24.1 °F 82% 29.93 in 3.0 mi West 8.1 mph - 0.00 in Snow Light Snow
7:17 PM 28.9 °F 21.1 °F 24.1 °F 82% 29.93 in 2.0 mi WNW 8.1 mph - 0.00 in Snow Light Snow
7:32 PM 28.0 °F 19.3 °F 23.0 °F 81% 29.93 in 3.0 mi WNW 9.2 mph - 0.00 in Snow Light Snow
7:38 PM 28.0 °F 18.6 °F 23.0 °F 81% 29.93 in 4.0 mi WNW 10.4 mph - 0.01 in   Haze
7:53 PM 28.0 °F 20.0 °F 23.0 °F 81% 29.98 in 6.0 mi WNW 8.1 mph - 0.01 in   Haze
8:03 PM 28.0 °F 18.6 °F 23.0 °F 81% 29.92 in 6.0 mi NW 10.4 mph - N/A   Haze
8:17 PM 28.0 °F 18.6 °F 23.0 °F 81% 29.93 in 6.0 mi WNW 10.4 mph - N/A   Haze
8:32 PM 28.0 °F 18.1 °F 23.0 °F 81% 29.93 in 5.0 mi WNW 11.5 mph - N/A   Haze
8:53 PM 27.0 °F 17.3 °F 23.0 °F 85% 29.99 in 4.0 mi NW 10.4 mph - N/A   Overcast
9:53 PM 27.0 °F 17.3 °F 21.0 °F 78% 30.00 in 6.0 mi WNW 10.4 mph - N/A   Haze
10:05 PM 26.1 °F 15.0 °F 21.0 °F 81% 29.94 in 7.0 mi NW 12.7 mph - N/A   Overcast
10:33 PM 26.1 °F 17.6 °F 19.9 °F 78% 29.94 in 7.0 mi NW 8.1 mph - N/A   Overcast
10:53 PM 25.0 °F 13.1 °F 18.0 °F 75% 30.00 in 8.0 mi NNW 13.8 mph - N/A   Overcast
11:01 PM 25.0 °F 13.1 °F 18.0 °F 75% 29.94 in 8.0 mi NW 13.8 mph - N/A   Overcast
11:53 PM 24.1 °F 13.1 °F 16.0 °F 71% 30.01 in 9.0 mi NW 11.5 mph - N/A   Overcast